Regional Weather Roundup
Issued by NWS

Home | Current Version | Previous Version | Text Only | Print | Product List | Glossary On
Versions: 1 2 3 4 5 6 7 8 9 10 11 12 13 14 15 16 17 18 19 20 21 22 23 24 25 26 27 28 29 30 31 32 33 34 35 36 37 38 39 40 41 42 43 44 45 46 47 48 49 50
000
ASUS43 KFSD 291210
RWRSD

WEATHER ROUNDUP FOR SOUTH DAKOTA
NATIONAL WEATHER SERVICE SIOUX FALLS SD
700 AM CDT SUN MAR 29 2015

NOTE: "FAIR" INDICATES FEW OR NO CLOUDS BELOW 12,000 FEET WITH NO
SIGNIFICANT WEATHER AND/OR OBSTRUCTIONS TO VISIBILITY.


SDZ001>005-009-010-012>017-291300-
NORTHWEST AND NORTH CENTRAL SOUTH DAKOTA

CITY           SKY/WX    TMP DP  RH WIND       PRES   REMARKS
BUFFALO          N/A     37  32  82 NW24      30.03R
FAITH            N/A     42  32  67 NW35G54   29.97R
MOBRIDGE       CLOUDY    43  38  82 NW31G45   29.84R
$$

SDZ012>016-024>037-041>051-057-063-072>074-291300-
SOUTHWEST AND SOUTH CENTRAL SOUTH DAKOTA

CITY           SKY/WX    TMP DP  RH WIND       PRES   REMARKS
RAPID CTY ARPT PTCLDY    44  29  55 NW44G64   30.03R
PIERRE         CLOUDY    46  39  76 NW43G55   29.87R
CUSTER         CLEAR     36  20  52 NW18G32   30.03R
ELLSWORTH AFB  PTCLDY    45  32  61 NW44G56   30.01
PHILIP         PTCLDY    46  34  62 NW28G45   30.00R
PINE RIDGE     CLEAR     44  26  49 NW10      30.10R
SPEARFISH      MIX PCPN  41  28  60 NW26G45   30.16R
WINNER         CLOUDY    50  34  54 NW38G54   29.88R
$$

SDZ004>011-016>023-039-040-291300-
NORTHEAST SOUTH DAKOTA

CITY           SKY/WX    TMP DP  RH WIND       PRES   REMARKS
ABERDEEN       LGT RAIN  45  41  86 NW24G38   29.69R
WATERTOWN      PTCLDY    43  35  73 W20G28    29.64R
SISSETON         N/A     46  41  82 NW28G39   29.55R
$$

SDZ017-020-022-023-036>040-048>070-291300-
SOUTHEAST SOUTH DAKOTA

CITY           SKY/WX    TMP DP  RH WIND       PRES   REMARKS
SIOUX FALLS    PTCLDY    45  37  73 W13       29.71R
HURON          CLEAR     48  37  65 NW29G40   29.72R
CHAMBERLAIN    CLOUDY    47  36  66 NW23G41   29.86R
MITCHELL       CLEAR     47  35  63 W15       29.77R
YANKTON        CLEAR     50  36  57 W18       29.79R
$$

ABBREVIATIONS USED IN REMARKS
   TC - TEMPERATURE IN CELSIUS
  WCI - WIND CHILL INDEX
   HX - HEAT INDEX
  VSB - VISIBILITY




USA.gov is the U.S. government's official web portal to all federal, state and local government web resources and services.